sat.trackr.live / text

‹ back to catalog

ONEWEB-0676

NORAD 56712 · 2023-068C

PAYLOAD ACTIVE UNKNOWN

§ Identity

Operator
Country
UK
Launch date
2023-05-20
Launch site
AFWTR
Launch vehicle
Mass (kg)
RCS (m²)

Purposes: comms

External: N2YO · Heavens-Above · Gunter

§ Orbital elements

Epoch: 2026-09-19T16:09:12.375360Z

Period
109.37 min
Inclination
87.9154°
Eccentricity
0.0002521
Mean motion
13.16640615 rev/d
Perigee alt
1,195.7 km
Apogee alt
1,199.5 km
Semi-major
7,575.7 km
B*
-2.4360e-2
RAAN
210.0213°
Arg perigee
86.6646°
Mean anomaly
273.4773°
Rev number
16,413

§ Raw data

ONEWEB-06761 56712U 23068C   26262.67305990 -.00009297  00000+0 -24360-1 0  99912 56712  87.9154 210.0213 0002521  86.6646 273.4773 13.16640615164133

JSON: /api/v1/satellites/56712 · /tle

For live sub-satellite position, see the globe view (requires WebGL).

§ Visibility from observer

Set your observer location to see the next 7 days of passes ≥ 10°. The values pass through the URL so the page stays shareable.

No JS? Fill the form by hand. The geolocation button needs JavaScript.